When you browse on this site, cookies collect data to enhance your experience and personalize the content and advertising you see.
Visit our Privacy Policy to learn more. By continuing to use the site, you agree to this use of cookies and data.
  • In Hungary
  • List of Countries
  • For 7 days
  • Water Temperature
  • Weather Map
  • News
  • Weather Widgets
  • user-avatar
    Login

    Hourly Weather Yasenok

    Today, 30 March, Monday

    Time Temperature Precipitation Wind Pressure Humidity
    00:00 +10°C° 0 mm 1 mps 737 mmHg 58%
    01:00 +10°C° 0 mm 1 mps 736 mmHg 60%
    02:00 +9°C° 0 mm 1 mps 736 mmHg 62%
    03:00 +9°C° 0 mm 1 mps 736 mmHg 64%
    04:00 +8°C° 0 mm 1 mps 736 mmHg 66%
    05:00 +8°C° 0 mm 1 mps 736 mmHg 67%
    06:00 +9°C° 0 mm 1 mps 736 mmHg 64%
    07:00 +10°C° 0 mm 1 mps 736 mmHg 62%
    08:00 +11°C° 0 mm 1 mps 736 mmHg 59%
    09:00 +12°C° 0 mm 2 mps 736 mmHg 54%
    10:00 +13°C° 0 mm 2 mps 736 mmHg 50%
    11:00 +14°C° 0 mm 2 mps 736 mmHg 45%
    12:00 +13°C° 0 mm 3 mps 737 mmHg 47%
    13:00 +14°C° 0 mm 4 mps 737 mmHg 49%
    14:00 +14°C° 0 mm 5 mps 737 mmHg 50%
    15:00 +13°C° 0 mm 6 mps 737 mmHg 56%
    16:00 +10°C° 0 mm 6 mps 738 mmHg 63%
    17:00 +9°C° 0 mm 7 mps 738 mmHg 69%
    18:00 +8°C° 0 mm 6 mps 738 mmHg 70%
    19:00 +5°C° 0 mm 6 mps 739 mmHg 72%
    20:00 +5°C° 0 mm 5 mps 739 mmHg 74%
    21:00 +3°C° 0 mm 5 mps 740 mmHg 73%
    22:00 +3°C° 0 mm 5 mps 740 mmHg 73%
    23:00 +2°C° 0 mm 5 mps 740 mmHg 72%

    Tomorrow, 31 March, Tuesday

    Time Temperature Precipitation Wind Pressure Humidity
    00:00 +1°C° 0 mm 5 mps 741 mmHg 72%
    01:00 +1°C° 0 mm 5 mps 741 mmHg 72%
    02:00 +1°C° 0 mm 5 mps 741 mmHg 72%
    03:00 0°C° 0 mm 5 mps 742 mmHg 74%
    04:00 0°C° 0 mm 5 mps 742 mmHg 75%
    05:00 -1°C° 0 mm 5 mps 742 mmHg 77%
    06:00 -1°C° 0 mm 5 mps 743 mmHg 74%
    07:00 -2°C° 0 mm 6 mps 743 mmHg 71%
    08:00 -3°C° 0 mm 6 mps 744 mmHg 69%
    09:00 -2°C° 0 mm 6 mps 744 mmHg 65%
    10:00 -2°C° 0 mm 6 mps 745 mmHg 61%
    11:00 0°C° 0 mm 5 mps 745 mmHg 57%
    12:00 0°C° 0 mm 5 mps 745 mmHg 54%
    13:00 +1°C° 0 mm 5 mps 746 mmHg 52%
    14:00 +1°C° 0 mm 5 mps 746 mmHg 50%
    15:00 +1°C° 0 mm 5 mps 746 mmHg 48%
    16:00 +1°C° 0 mm 5 mps 746 mmHg 47%
    17:00 +1°C° 0 mm 5 mps 746 mmHg 46%
    18:00 0°C° 0 mm 5 mps 747 mmHg 48%
    19:00 -1°C° 0 mm 4 mps 747 mmHg 50%
    20:00 -2°C° 0 mm 4 mps 748 mmHg 52%
    21:00 -2°C° 0 mm 4 mps 748 mmHg 53%
    22:00 -2°C° 0 mm 3 mps 748 mmHg 54%
    23:00 -2°C° 0 mm 3 mps 749 mmHg 54%

    Day after tomorrow, 1 April, Wednesday

    Time Temperature Precipitation Wind Pressure Humidity
    00:00 -2°C° 0 mm 3 mps 749 mmHg 54%
    01:00 -4°C° 0 mm 3 mps 749 mmHg 54%
    02:00 -4°C° 0 mm 3 mps 749 mmHg 54%
    03:00 -4°C° 0 mm 3 mps 749 mmHg 54%
    04:00 -4°C° 0 mm 3 mps 749 mmHg 54%
    05:00 -4°C° 0 mm 3 mps 749 mmHg 54%
    06:00 -4°C° 0 mm 3 mps 749 mmHg 48%
    07:00 -2°C° 0 mm 3 mps 749 mmHg 42%
    08:00 -1°C° 0 mm 3 mps 749 mmHg 36%
    09:00 0°C° 0 mm 3 mps 749 mmHg 32%
    10:00 0°C° 0 mm 3 mps 749 mmHg 29%
    11:00 +1°C° 0 mm 3 mps 749 mmHg 25%
    12:00 +2°C° 0 mm 3 mps 748 mmHg 27%
    13:00 +3°C° 0 mm 4 mps 748 mmHg 29%
    14:00 +4°C° 0 mm 4 mps 748 mmHg 31%
    15:00 +4°C° 0 mm 4 mps 747 mmHg 34%
    16:00 +3°C° 0 mm 4 mps 747 mmHg 37%
    17:00 +2°C° 0 mm 5 mps 746 mmHg 40%
    18:00 +2°C° 0 mm 5 mps 746 mmHg 44%
    19:00 +1°C° 0 mm 4 mps 746 mmHg 48%
    20:00 0°C° 0 mm 4 mps 746 mmHg 52%
    21:00 0°C° 0 mm 5 mps 746 mmHg 53%
    22:00 0°C° 0 mm 5 mps 745 mmHg 54%
    23:00 0°C° 0 mm 5 mps 745 mmHg 54%

    2 April, Thursday

    Time Temperature Precipitation Wind Pressure Humidity
    00:00 -1°C° 0 mm 5 mps 745 mmHg 56%
    01:00 -1°C° 0 mm 5 mps 745 mmHg 57%
    02:00 -1°C° 0 mm 5 mps 745 mmHg 58%
    03:00 -2°C° 0 mm 4 mps 744 mmHg 60%
    04:00 -2°C° 0 mm 4 mps 744 mmHg 62%
    05:00 -2°C° 0 mm 4 mps 744 mmHg 64%
    06:00 -1°C° 0 mm 5 mps 744 mmHg 60%
    07:00 0°C° 0 mm 5 mps 744 mmHg 55%
    08:00 +1°C° 0 mm 6 mps 744 mmHg 51%
    09:00 +3°C° 0 mm 6 mps 744 mmHg 48%
    10:00 +4°C° 0 mm 6 mps 744 mmHg 44%
    11:00 +5°C° 0 mm 7 mps 744 mmHg 40%
    12:00 +5°C° 0 mm 7 mps 743 mmHg 39%
    13:00 +6°C° 0 mm 7 mps 743 mmHg 38%
    14:00 +8°C° 0 mm 7 mps 743 mmHg 37%
    15:00 +6°C° 0 mm 7 mps 743 mmHg 38%
    16:00 +7°C° 0 mm 6 mps 743 mmHg 40%
    17:00 +7°C° 0 mm 5 mps 742 mmHg 42%
    18:00 +6°C° 0 mm 4 mps 743 mmHg 47%
    19:00 +5°C° 0 mm 4 mps 743 mmHg 51%
    20:00 +4°C° 0 mm 3 mps 743 mmHg 56%
    21:00 +4°C° 0 mm 3 mps 743 mmHg 57%
    22:00 +3°C° 0 mm 3 mps 743 mmHg 59%
    23:00 +3°C° 0 mm 3 mps 743 mmHg 60%

    3 April, Friday

    Time Temperature Precipitation Wind Pressure Humidity
    00:00 +3°C° 0 mm 3 mps 743 mmHg 62%
    01:00 +2°C° 0 mm 3 mps 743 mmHg 64%
    02:00 +2°C° 0 mm 3 mps 743 mmHg 65%
    03:00 +2°C° 0 mm 3 mps 743 mmHg 68%
    04:00 +1°C° 0 mm 3 mps 743 mmHg 70%
    05:00 +1°C° 0 mm 3 mps 743 mmHg 73%
    06:00 +2°C° 0 mm 3 mps 743 mmHg 69%
    07:00 +3°C° 0 mm 3 mps 743 mmHg 65%
    08:00 +4°C° 0 mm 4 mps 744 mmHg 61%
    09:00 +6°C° 0 mm 4 mps 744 mmHg 56%
    10:00 +7°C° 0 mm 5 mps 743 mmHg 51%
    11:00 +8°C° 0 mm 5 mps 743 mmHg 45%
    12:00 +9°C° 0 mm 6 mps 743 mmHg 45%
    13:00 +9°C° 0 mm 6 mps 743 mmHg 44%
    14:00 +10°C° 0 mm 6 mps 743 mmHg 44%
    15:00 +9°C° 0 mm 5 mps 743 mmHg 44%
    16:00 +9°C° 0 mm 5 mps 742 mmHg 45%
    17:00 +9°C° 0 mm 5 mps 742 mmHg 46%
    18:00 +8°C° 0 mm 4 mps 742 mmHg 47%
    19:00 +7°C° 0 mm 4 mps 742 mmHg 49%
    20:00 +6°C° 0 mm 4 mps 743 mmHg 50%
    21:00 +6°C° 0 mm 4 mps 742 mmHg 51%
    22:00 +6°C° 0 mm 5 mps 742 mmHg 52%
    23:00 +5°C° 0 mm 5 mps 742 mmHg 53%

    4 April, Saturday

    Time Temperature Precipitation Wind Pressure Humidity
    00:00 +5°C° 0 mm 5 mps 742 mmHg 54%
    01:00 +4°C° 0 mm 6 mps 742 mmHg 55%
    02:00 +3°C° 0 mm 6 mps 741 mmHg 56%
    03:00 +3°C° 0 mm 5 mps 742 mmHg 58%
    04:00 +3°C° 0 mm 5 mps 742 mmHg 61%
    05:00 +2°C° 0 mm 5 mps 742 mmHg 63%
    06:00 +2°C° 0.4 mm 5 mps 742 mmHg 69%
    07:00 +2°C° 0.4 mm 5 mps 743 mmHg 75%
    08:00 +2°C° 0.4 mm 5 mps 743 mmHg 81%
    09:00 +3°C° 0.2 mm 5 mps 744 mmHg 71%
    10:00 +4°C° 0.2 mm 6 mps 744 mmHg 61%
    11:00 +5°C° 0.2 mm 6 mps 745 mmHg 51%
    12:00 +5°C° 0.1 mm 6 mps 745 mmHg 46%
    13:00 +7°C° 0.1 mm 6 mps 745 mmHg 41%
    14:00 +6°C° 0.1 mm 7 mps 746 mmHg 36%
    15:00 +7°C° 0 mm 6 mps 746 mmHg 37%
    16:00 +5°C° 0 mm 6 mps 746 mmHg 37%
    17:00 +5°C° 0 mm 6 mps 746 mmHg 37%
    18:00 +5°C° 0 mm 5 mps 747 mmHg 43%
    19:00 +4°C° 0 mm 4 mps 748 mmHg 49%
    20:00 +4°C° 0 mm 4 mps 748 mmHg 55%
    21:00 +3°C° 0 mm 4 mps 749 mmHg 58%
    22:00 +3°C° 0 mm 4 mps 750 mmHg 61%
    23:00 +1°C° 0 mm 4 mps 750 mmHg 64%
    Show more